www.pogodaiklimat.ru
ПОГОДА в Пойнт Мугу
Время
и дата
22:49 19.07
22:55 19.07
23:17 19.07
23:55 19.07
00:15 20.07
00:32 20.07
00:55 20.07
01:22 20.07
01:29 20.07
01:55 20.07
02:16 20.07
02:35 20.07
02:55 20.07
03:06 20.07
03:25 20.07
03:33 20.07
03:55 20.07
04:18 20.07
04:55 20.07
05:55 20.07
06:55 20.07
07:07 20.07
07:31 20.07
07:55 20.07
08:11 20.07
08:55 20.07
09:55 20.07
10:55 20.07
11:55 20.07
12:55 20.07
13:55 20.07
14:55 20.07
15:55 20.07
16:55 20.07
17:55 20.07
18:55 20.07
19:55 20.07
20:55 20.07
21:55 20.07
23:55 20.07
00:55 21.07
01:55 21.07
02:55 21.07
03:55 21.07
04:55 21.07
05:55 21.07
06:55 21.07
07:55 21.07
Ветер
(напр.,м/с)
Видим. Явления Облачность Т
(С)
Тd
(С)
f
(%)
Тe
(С)
Тes
(С)
Комфортность P
(гПа)
Po
(гПа)
Тmin
(С)
Tmax
(С)
R
(мм)
R24
(мм)
S
(см)
С 2 2 км дымка 10/10 60 м +16.0 +16.0 100 +16 +16 1013.7
С 2 1 км дымка ?/? +16.1 +16.1 100 +16 +16 1014.1 1013.7
С 2 1 км дымка ?/? +16.1 +16.1 100 +16 +16 1013.4
З 2 800 м туман ?/? +16.1 +16.1 100 +16 +16 1013.8 1013.1
штиль 0 400 м туман ?/? +15.6 +15.6 100 +15 +15 1013.1
штиль 0 800 м туман ?/? +16.1 +16.1 100 +16 +16 1013.1
С 2 800 м туман ?/? +16.1 +16.1 100 +16 +16 1013.6 1013.1
З 2 1 км дымка ?/? +15.6 +15.6 100 +15 +15 1013.1
З 3 800 м туман ?/? +15.6 +15.6 100 +15 +15 1013.1
З 2 800 м туман ?/? +15.6 +15.6 100 +15 +15 1013.6 1013.1
З 2 1 км дымка ?/? +15.6 +15.6 100 +15 +15 1013.1
штиль 0 800 м туман ?/? +15.6 +15.6 100 +15 +15 1013.1
СЗ 2 800 м туман ?/? +15.6 +15.6 100 +15 +15 1013.4 1012.7
СЗ 2 400 м туман ?/? +15.6 +15.6 100 +15 +15 1012.7
СЗ 2 800 м туман ?/? +15.6 +15.6 100 +15 +15 1012.7
З 2 1 км дымка ?/? +15.6 +15.6 100 +15 +15 1012.7
З 2 800 м туман ?/? +15.6 +15.6 100 +15 +15 1013.5 1013.1 +15.6 +16.1
З 2 800 м туман н/о +15.6 +15.6 100 +15 +15 1013.1
СЗ 2 400 м туман ?/? +15.6 +15.6 100 +15 +15 1013.8 1013.4
С 3 200 м туман ?/? +15.6 +15.6 100 +15 +15 1014.2 1013.7
СЗ 2 800 м туман 10/10 60 м +15.6 +15.6 100 +15 +15 1014.8 1014.1
СЗ 2 2 км дымка 10/10 60 м +15.6 +15.6 100 +15 +15 1014.4
СЗ 2 4 км дымка 10/10 90 м +16.1 +15.6 97 +16 +16 1014.4
С 3 5 км дымка 8/8 60 м +16.1 +15.6 97 +16 +16 1014.8 1014.1
СЗ 3 5 км дымка 5/5 60 м +18.3 +16.1 87 +19 +22 1014.1
СЗ 4 13 км 2/2 150 м +20.6 +16.1 75 +24 +28 комфорт 1014.7 1014.1
З 5 13 км туман 2/2 60 м +20.0 +16.1 78 +22 +28 комфорт 1014.9 1014.4 +15.0 +21.1
ЮЗ 7 11 км 5/5 90 м +20.6 +16.1 75 +23 +26 комфорт 1014.7 1014.1
З 5 11 км туман 5/5 30 m
[Ac]
+20.0 +16.1 78 +22 +28 комфорт 1014.7 1014.1
З 4 11 км туман 5/5 30 m
[Ac]
+20.6 +16.1 75 +24 +31 комфорт 1014.4 1013.7
З 6 16 км 2/2 90 m
[Ac]
+21.7 +16.7 73 +26 +32 душно 1013.8 1013.4
З 5 16 км 2/2 90 m
[Ac]
+23.3 +17.2 69 +29 +36 душно 1013.1 1012.7
СЗ 4 16 км 2/0 5400 m
[Ac]
+22.8 +16.7 68 +27 +34 душно 1012.4 1011.7 +20.0 +23.3
З 4 16 км 2/0 5400 m
[Ac]
+22.2 +16.1 68 +26 +30 душно 1011.9 1011.4
З 4 16 км ясно +20.6 +16.1 75 +24 +26 комфорт 1012.0 1011.4
З 4 13 км 2/0 4800 m
[Ac Ci]
+18.3 +16.1 87 +19 +19 1012.2 1011.7
СЗ 4 13 км ясно +17.2 +15.6 90 +17 +17 1012.2 1011.7
СЗ 4 11 км ясно +16.7 +15.6 93 +16 +16 1012.3 1011.7
СЗ 3 11 км ясно +16.7 +15.6 93 +16 +16 1012.3 1011.7 +16.7 +23.3
СЗ 2 11 км ясно +16.1 +15.6 97 +16 +16 1012.4 1011.7
штиль 0 11 км ясно +15.0 +14.4 96 +15 +15 1012.1 1011.7
штиль 0 13 км ясно +15.6 +15.0 96 +15 +15 1012.0 1011.4
штиль 0 11 км ясно +14.4 +13.9 97 +14 +14 1011.8 1011.4
С 2 11 км ясно +14.4 +13.9 97 +14 +14 1011.9 1011.4 +13.9 +17.2
С 2 10 км дымка 2/0 5100 m
[Ac]
+14.4 +13.9 97 +14 +14 1012.0 1011.4
С 2 8 км дымка 2/2 150 m
[Ac]
+16.1 +15.6 97 +16 +16 1012.3 1011.7
С 2 11 км 2/2 150 m
[Ac]
+18.3 +16.7 90 +19 +20 1012.9 1012.4
З 2 14 км 2/0 5100 m
[Ac]
+20.6 +16.1 75 +24 +28 комфорт 1013.1 1012.4
Местоположение метеостанции Point Mugu Naval Air Station: широта 34.1239 долгота -119.1217 высота над уровнем моря 3 м.
В архиве по умолчанию представлена погода в Пойнт Мугу за последние 1-2 суток. Обновление информации о фактической погоде в базе происходит ежечасно! Архивные данные за месяц целиком и за предыдущие месяцы Вы можете получить, выбрав интересующий диапазон дат из раскрывающегося списка и нажав кнопку "Ввод!".
Внимание! Архив погоды МЕТАР в базе сайта по станциям, не включенным в климатический монитор, хранится не более 60 дней. Нет смысла пытаться выбрать более раннюю дату.
*Определитесь, кто Вы:
Внимание! Время в таблицах - местное (без учета летнего времени). Для получения всемирного времени необходимо вычесть поправку, которая равна -8 ч.
Смотрите также архив погоды в соседних городах и на ближайших метеорологических станциях:
Партнеры нашего сайта:      
Пояснения к столбцам:
  • Ветер - указаны скорость ветра в м/с - средняя за 10 мин, порывы в срок и между сроками (в фигурных скобках) и направление, откуда дует ветер: С - северный,
  • СВ - северо-восточный, В - восточный, ЮВ - юго-восточный, Ю - южный, ЮЗ - юго-западный, З - западный, СЗ - северо-западный.
  • Видимость - горизонтальная дальность видимости в метрах или километрах. При видимости от 1 до 10 км при отсутствии осадков обычно наблюдается дымка, при ухудшении видимости до 1 км и менее - туман. В сухую погоду видимость может ухудшаться дымом, пылью или мглою.
  • Явления - указаны атмосферные явления, наблюдавшиеся в срок или в последний час перед сроком; фигурными скобками обозначены явления, наблюдавшиеся между сроками (за 1-3 часа до срока); квадратными скобками обозначены град или гололедные отложения с указанием их диаметра в мм.
  • Облачность - указаны через наклонную черту общая и нижняя облачность в баллах и высота нижней границы облаков в метрах; квадратными скобками обозначены формы облаков: Ci - перистые, Cs - перисто-слоистые, Cc - перисто-кучевые, Ac - высококучевые, As - высокослоистые, Sc - слоисто-кучевые, Ns - слоисто-дождевые, Cu - кучевые, Cb - кучево-дождевые. Подробнее классификацию облаков см. в Атласе облаков (PDF).
  • T - Температура воздуха - температура, измеренная на высоте 2 м над землей.
  • Td - Температура точки росы - температура, при понижении до которой содержащийся в воздухе водяной пар достигнет насыщения.
  • f - Относительная влажность воздуха - влажноcть воздуха, измеренная на высоте 2 м над землей.
  • Te - Эффективная температура - температура, которую ощущает одетый по сезону человек в тени. Характеристика душности погоды. При расчете учитывается влияние влажности воздуха и скорости ветра на теплоощущения человека.
  • Tes - Эффективная температура на солнце - температура, которую ощущает человек, с поправкой на солнечный нагрев. Характеристика знойности погоды. Зависит от высоты солнца над горизонтом, облачности и скорости ветра. Ночью, в пасмурную погоду, а также при ветре 12 м/с и более поправка равна нулю.
  • P - Атмосферное давление - приведенное к уровню моря атмосферное давление.
  • Po - Атмосферное давление - измеренное на уровне метеостанции атмосферное давление.
  • Tmin - Минимальная температура - минимум температуры воздуха на высоте 2 м над землей.
  • Tmax - Максимальная температура - максимум температуры воздуха на высоте 2 м над землей.
  • R - Количество осадков - Количество выпавших осадков за период времени, мм. При наведении курсора мыши на число - период времени, за который выпало указанное количество осадков.
  • R24 - Количество осадков - Количество выпавших осадков за 24 часа, мм.
  • S - Снежный покров - Высота снежного покрова, см. При наведении курсора мыши на число - состояние снежного покрова и степень покрытия местности в баллах.